| time (UTC) | temp F | wind direction | speed MPH | gust MPH | rain 1hr in | rain 24hr in | rain mn in | humidity % | barometer mb |
| 20260506151604 | 60 | 63 | 1.0 | 2.0 | 0.00 | 0.00 | 0.00 | 40 | 1011.8 |
| 20260506150108 | 59 | 259 | 0.0 | 5.0 | 0.00 | 0.00 | 0.00 | 43 | 1012.0 |
| 20260506144610 | 59 | 29 | 3.0 | 8.0 | 0.00 | 0.00 | 0.00 | 43 | 1012.0 |
| 20260506143101 | 59 | 255 | 1.0 | 6.0 | 0.00 | 0.00 | 0.00 | 41 | 1012.1 |
| 20260506141600 | 59 | 356 | 3.0 | 11.0 | 0.00 | 0.00 | 0.00 | 41 | 1012.2 |
| 20260506140100 | 59 | 102 | 3.0 | 12.0 | 0.00 | 0.00 | 0.00 | 43 | 1012.4 |
| 20260506134601 | 59 | 28 | 3.0 | 10.0 | 0.00 | 0.06 | 0.00 | 42 | 1012.6 |
| 20260506133115 | 58 | 0 | 6.0 | 9.0 | 0.00 | 0.06 | 0.00 | 43 | 1012.8 |
| 20260506131616 | 58 | 320 | 5.0 | 12.0 | 0.00 | 0.06 | 0.00 | 44 | 1012.9 |
| 20260506130101 | 58 | 263 | 1.0 | 7.0 | 0.00 | 0.06 | 0.00 | 42 | 1012.9 |
| 20260506124601 | 56 | 0 | 1.0 | 8.0 | 0.00 | 0.07 | 0.00 | 45 | 1013.2 |
| 20260506123100 | 57 | 120 | 5.0 | 9.0 | 0.00 | 0.07 | 0.00 | 48 | 1013.1 |
| 20260506121602 | 55 | 0 | 4.0 | 9.0 | 0.00 | 0.07 | 0.00 | 50 | 1013.3 |
| 20260506120110 | 55 | 126 | 2.0 | 8.0 | 0.00 | 0.07 | 0.00 | 53 | 1013.4 |
| 20260506114600 | 55 | 0 | 1.0 | 7.0 | 0.00 | 0.07 | 0.00 | 54 | 1013.5 |
| 20260506113100 | 54 | 184 | 2.0 | 7.0 | 0.00 | 0.07 | 0.00 | 54 | 1013.6 |
| 20260506111559 | 53 | 265 | 5.0 | 9.0 | 0.00 | 0.07 | 0.00 | 56 | 1013.8 |
| 20260506110113 | 54 | 28 | 4.0 | 7.0 | 0.00 | 0.07 | 0.00 | 57 | 1013.8 |
| 20260506104615 | 53 | 10 | 2.0 | 5.0 | 0.00 | 0.07 | 0.00 | 60 | 1013.9 |
| 20260506103100 | 53 | 31 | 2.0 | 5.0 | 0.00 | 0.07 | 0.00 | 59 | 1013.9 |
| 20260506101600 | 52 | 50 | 2.0 | 6.0 | 0.00 | 0.07 | 0.00 | 60 | 1014.0 |
| 20260506100113 | 51 | 252 | 5.0 | 11.0 | 0.00 | 0.07 | 0.00 | 63 | 1014.1 |
| 20260506094604 | 51 | 53 | 4.0 | 9.0 | 0.00 | 0.07 | 0.00 | 63 | 1014.0 |
| 20260506093101 | 50 | 86 | 7.0 | 11.0 | 0.00 | 0.07 | 0.00 | 65 | 1014.1 |
| 20260506091607 | 49 | 2 | 4.0 | 12.0 | 0.00 | 0.07 | 0.00 | 66 | 1013.9 |
| 20260506090105 | 48 | 8 | 6.0 | 12.0 | 0.00 | 0.07 | 0.00 | 67 | 1014.0 |
| 20260506084635 | 48 | 63 | 5.0 | 12.0 | 0.00 | 0.07 | 0.00 | 67 | 1013.9 |
| 20260506083111 | 48 | 44 | 6.0 | 11.0 | 0.00 | 0.07 | 0.00 | 67 | 1013.8 |
| 20260506081602 | 47 | 49 | 5.0 | 11.0 | 0.00 | 0.07 | 0.00 | 71 | 1014.0 |
| 20260506080105 | 46 | 46 | 4.0 | 11.0 | 0.00 | 0.07 | 0.00 | 72 | 1013.9 |
| 20260506073100 | 45 | 39 | 6.0 | 12.0 | 0.00 | 0.07 | 0.00 | 76 | 1013.7 |
| 20260506071600 | 44 | 63 | 6.0 | 11.0 | 0.00 | 0.07 | 0.00 | 81 | 1013.7 |
| 20260506061559 | 39 | 116 | 1.0 | 3.0 | 0.00 | 0.07 | 0.00 | 86 | 1013.6 |
| 20260506044559 | 36 | 65 | 2.0 | 4.0 | 0.00 | 0.07 | 0.00 | 91 | 1013.0 |
| 20260506043058 | 35 | 104 | 1.0 | 2.0 | 0.00 | 0.07 | 0.00 | 91 | 1012.9 |
| 20260506041608 | 35 | 0 | 0.0 | 2.0 | 0.00 | 0.07 | 0.00 | 92 | 1013.0 |
| 20260506040100 | 35 | 62 | 1.0 | 4.0 | 0.00 | 0.07 | 0.00 | 91 | 1013.1 |
| 20260506034559 | 36 | 95 | 1.0 | 5.0 | 0.00 | 0.07 | 0.00 | 91 | 1013.2 |
| 20260506033101 | 36 | 0 | 0.0 | 2.0 | 0.00 | 0.07 | 0.00 | 91 | 1013.1 |
| 20260506031558 | 36 | 0 | 1.0 | 4.0 | 0.00 | 0.07 | 0.00 | 91 | 1013.1 |
| 20260506030059 | 36 | 52 | 0.0 | 3.0 | 0.00 | 0.07 | 0.00 | 91 | 1013.3 |
| 20260506024602 | 36 | 69 | 0.0 | 2.0 | 0.00 | 0.07 | 0.00 | 90 | 1013.3 |
| 20260506023109 | 37 | 48 | 0.0 | 2.0 | 0.00 | 0.07 | 0.00 | 90 | 1013.4 |
| 20260506021617 | 37 | 127 | 1.0 | 2.0 | 0.00 | 0.07 | 0.00 | 90 | 1013.4 |
| 20260506020055 | 37 | 0 | 0.0 | 1.0 | 0.00 | 0.07 | 0.00 | 90 | 1013.5 |
| 20260506014557 | 37 | 0 | 0.0 | 1.0 | 0.00 | 0.07 | 0.00 | 90 | 1013.5 |
| 20260506013108 | 38 | 120 | 0.0 | 1.0 | 0.00 | 0.07 | 0.00 | 89 | 1013.6 |
| 20260506011616 | 38 | 0 | 0.0 | 0.0 | 0.00 | 0.07 | 0.00 | 88 | 1013.6 |
| 20260506010059 | 39 | 0 | 0.0 | 2.0 | 0.00 | 0.07 | 0.00 | 88 | 1013.7 |
| 20260506004558 | 39 | 0 | 0.0 | 3.0 | 0.00 | 0.07 | 0.00 | 88 | 1013.8 |
| 20260506003057 | 38 | 47 | 0.0 | 2.0 | 0.00 | 0.07 | 0.00 | 87 | 1013.7 |
| 20260506001559 | 39 | 113 | 0.0 | 1.0 | 0.00 | 0.07 | 0.00 | 86 | 1013.9 |
| 20260506000100 | 40 | 48 | 1.0 | 3.0 | 0.00 | 0.07 | 0.00 | 85 | 1013.7 |
| 20260505234559 | 40 | 106 | 1.0 | 4.0 | 0.00 | 0.07 | 0.00 | 85 | 1013.8 |
| 20260505233105 | 40 | 131 | 2.0 | 5.0 | 0.00 | 0.07 | 0.00 | 85 | 1013.9 |
| 20260505231611 | 40 | 56 | 3.0 | 8.0 | 0.00 | 0.07 | 0.00 | 85 | 1014.1 |
| 20260505230058 | 41 | 58 | 4.0 | 7.0 | 0.00 | 0.07 | 0.00 | 83 | 1014.1 |
| 20260505224603 | 42 | 101 | 1.0 | 5.0 | 0.00 | 0.07 | 0.00 | 81 | 1014.2 |
| 20260505223101 | 43 | 52 | 3.0 | 5.0 | 0.00 | 0.07 | 0.00 | 80 | 1014.1 |
| 20260505221604 | 42 | 55 | 2.0 | 5.0 | 0.00 | 0.07 | 0.00 | 81 | 1014.2 |
| 20260505214601 | 44 | 42 | 4.0 | 8.0 | 0.00 | 0.07 | 0.07 | 78 | 1014.3 |
| 20260505213059 | 44 | 54 | 5.0 | 9.0 | 0.00 | 0.07 | 0.07 | 77 | 1014.3 |
| 20260505211559 | 45 | 43 | 2.0 | 7.0 | 0.00 | 0.07 | 0.07 | 76 | 1014.4 |
| 20260505210059 | 45 | 50 | 6.0 | 12.0 | 0.00 | 0.07 | 0.07 | 75 | 1014.2 |
| 20260505204600 | 46 | 319 | 2.0 | 6.0 | 0.00 | 0.07 | 0.07 | 74 | 1014.1 |
| 20260505203121 | 47 | 352 | 5.0 | 9.0 | 0.00 | 0.07 | 0.07 | 72 | 1013.9 |
| 20260505201605 | 48 | 333 | 8.0 | 13.0 | 0.00 | 0.07 | 0.07 | 69 | 1013.6 |
| 20260505194600 | 50 | 336 | 3.0 | 8.0 | 0.00 | 0.07 | 0.07 | 65 | 1013.3 |
| 20260505193109 | 51 | 293 | 5.0 | 10.0 | 0.00 | 0.07 | 0.07 | 63 | 1013.0 |
| 20260505191612 | 51 | 354 | 3.0 | 12.0 | 0.00 | 0.07 | 0.07 | 63 | 1012.9 |
| 20260505190100 | 51 | 295 | 5.0 | 9.0 | 0.00 | 0.07 | 0.07 | 63 | 1012.7 |
| 20260505184602 | 52 | 349 | 5.0 | 9.0 | 0.00 | 0.07 | 0.07 | 64 | 1012.6 |
| 20260505181559 | 52 | 68 | 1.0 | 3.0 | 0.00 | 0.07 | 0.07 | 70 | 1012.4 |
| 20260505180103 | 50 | 115 | 2.0 | 5.0 | 0.00 | 0.07 | 0.07 | 72 | 1012.3 |
| 20260505174606 | 50 | 56 | 2.0 | 6.0 | 0.00 | 0.07 | 0.07 | 74 | 1012.3 |
| 20260505173101 | 50 | 94 | 2.0 | 5.0 | 0.00 | 0.07 | 0.07 | 72 | 1012.3 |
| 20260505171601 | 51 | 75 | 3.0 | 5.0 | 0.00 | 0.06 | 0.06 | 70 | 1012.2 |
| 20260505170111 | 51 | 41 | 5.0 | 11.0 | 0.00 | 0.06 | 0.06 | 65 | 1012.1 |
| 20260505164559 | 51 | 53 | 7.0 | 14.0 | 0.00 | 0.06 | 0.06 | 64 | 1012.3 |
| 20260505163103 | 51 | 349 | 8.0 | 14.0 | 0.00 | 0.06 | 0.06 | 65 | 1012.3 |
| 20260505161616 | 52 | 336 | 7.0 | 16.0 | 0.00 | 0.06 | 0.06 | 61 | 1012.3 |
| 20260505153108 | 54 | 1 | 3.0 | 7.0 | 0.00 | 0.06 | 0.06 | 60 | 1012.3 |